Location: G�nzburg
(48.4565°N, 10.3217°E)
Time: 15:12:43
(UTC+01:00)

ISS - Pass Details

Date: 09 January 2018
Orbit: 402 x 407 km, 51.6° (Epoch: 21 January)

Event Time Altitude Azimuth Distance (km) Brightness Sun altitude
Exits shadow 05:48:30 41° 50° (NE) 609 -2.7 -22.4°
Drops below altitude 10° 05:51:00 10° 85° (E) 1,468 0.1 -22.0°
Sets 05:53:08 0° 91° (E) 2,329 1.5 -21.6°
